Location: Marcé
(47.5801°N, 0.3280°W)
Time: 08:34:01
(UTC+01:00)

Vanguard 3 - Pass Details

Date: 12 December 2021
Orbit: 508 x 3260 km, 33.3° (Epoch: 24 January)

Event Time Altitude Azimuth Distance (km) Brightness Sun altitude
Rises 08:31:28 0° 277° (W) 7,229 11.4 -2.1°
Reaches altitude 10° 08:37:43 10° 267° (W) 6,159 11.2 -1.2°
Maximum altitude 08:51:14 25° 222° (SW) 4,465 10.9 0.7°
Drops below altitude 10° 09:01:56 10° 174° (S) 4,774 11.8 2.1°
Sets 09:06:01 0° 161° (SSE) 5,365 12.5 2.6°
